Location: Ambatonakanga
(18.9000°S, 47.5167°E)
Time: 08:47:19
(UTC+00:00)

Daily predictions for brighter satellites

Satellite Brightness Start Highest point End
(mag) Time Altitude Azimuth Time Altitude Azimuth Time Altitude Azimuth
CZ-4B R/B 1.1 14:42:55 10° NNE 14:45:57 82° E 14:49:01 10° S
Aurora 2 Rocket 2.6 14:41:24 10° WNW 14:46:29 70° NNE 14:50:11 10° ESE
BREEZE-M DEB (TANK) 3.4 14:44:24 10° NNW 14:47:03 28° NE 14:49:37 10° ESE
Cosmos-2242 3.0 14:43:47 10° S 14:48:10 84° E 14:52:29 10° N
Cosmos 2098 Rocket 2.9 14:44:27 10° N 14:49:06 65° E 14:52:50 10° SSE
SWIFT 2.4 14:45:37 10° WNW 14:49:47 73° N 14:53:59 10° E
Cosmos 2237 Rocket 2.8 14:46:25 10° NNE 14:51:27 34° ENE 14:56:32 10° SE
Radarsat Rocket 4.0 14:47:42 10° SSE 14:53:36 61° ENE 14:59:20 10° N
Meteosat 1 Rocket2 2.6 14:50:07 10° WSW 14:53:48 63° SSE 14:57:34 10° ENE
CZ-2C R/B 1.5 14:50:51 10° SW 14:55:05 52° SSE 14:59:05 10° ENE
Atlas Centaur 2 3.4 14:49:46 10° WSW 14:55:21 39° S 15:02:12 10° SE
Tianhe-1 1.5 14:54:58 10° WSW 14:57:59 61° NW 15:01:00 10° NE
Cosmos 1689 Rocket 3.2 14:56:52 10° NE 14:59:04 21° ESE 15:01:18 10° SSE
Sylda 5 4.4 14:58:12 10° NNW 15:00:13 13° N 15:02:02 10° NNE
DASH 3.4 14:59:33 10° SW 15:01:26 18° SSE 15:03:05 12° SE
H-2A R/B 3.0 14:57:59 10° SE 15:01:30 33° E 15:04:58 10° NNE
ISS -1.7 15:01:58 10° SSE 15:03:24 12° SE 15:03:52 12° SE
CSL-04 DEB 4.5 15:00:01 10° N 15:03:59 80° WNW 15:07:56 10° SSW
ERS-2 3.3 15:04:39 10° NE 15:07:30 22° ESE 15:10:22 10° SSE
COSMOS 2428 4.1 15:04:29 10° NW 15:09:49 41° WSW 15:15:11 10° S
Okean O Rocket 1.8 15:06:00 10° SSE 15:10:23 52° E 15:14:42 10° N
Cosmos 405 Rocket 2.5 15:08:33 10° N 15:12:13 72° E 15:15:55 10° S
PAYLOAD B 4.4 15:08:09 10° S 15:13:45 78° WSW 15:19:16 10° NNW
EPKM 2.0 15:08:58 10° WNW 15:13:58 86° N 15:15:06 24° ESE
Cosmos 2221 3.4 15:10:57 10° SSE 15:14:37 27° E 15:18:15 10° NE
Cosmos 192 4.3 15:11:15 10° NNW 15:16:08 88° WSW 15:21:04 10° SSE
Spot 2 4.5 15:12:16 10° SSE 15:17:27 80° ENE 15:22:33 10° N
Cosmos 1869 3.5 15:13:48 10° S 15:17:50 73° W 15:21:46 10° N
Cosmos 2058 3.4 15:13:57 10° NNW 15:17:58 62° W 15:22:04 10° S
Sakura Rocket 3.0 15:16:31 10° WSW 15:20:25 78° NNW 15:24:54 13° ENE
Cosmos 2292 Rocket 3.8 15:20:27 10° NNE 15:23:06 26° E 15:23:22 26° E
NOSS 3-3 (A) 3.6 15:18:06 10° SSW 15:23:51 68° ESE 15:29:13 10° NNE
NOSS 3-3 (C) 3.6 15:18:10 10° SSW 15:23:56 67° ESE 15:29:20 10° NNE
IRIDIUM 104 4.3 15:19:42 10° S 15:24:58 90° WSW 15:30:11 10° N
Cosmos 1076 Rocket 3.4 15:22:39 10° N 15:26:51 69° E 15:31:06 10° S
SOZ 3.8 15:27:05 10° SW 15:29:42 70° SE 15:31:13 22° NE
ATLAS 5 CENTAUR R/B -0.2 15:26:34 10° W 15:30:17 64° S 15:30:41 51° SE
Cosmos 1825 4.3 15:27:41 10° NW 15:30:59 29° W 15:34:19 10° SSW
CZ-4B R/B 3.3 15:26:19 10° S 15:31:38 77° WSW 15:36:55 10° NNW
Delta 142 3.3 15:30:25 10° WNW 15:34:54 85° SSW 15:36:35 35° ESE
Cosmos 1844 Rocket 3.1 15:32:04 10° SSW 15:37:37 64° WNW 15:43:06 10° N
Cosmos 968 Rocket 3.6 15:33:23 10° SSW 15:38:39 79° WNW 15:43:54 10° N
SAR-Lupe-4 3.5 15:35:24 10° NNE 15:38:58 90° W 15:42:36 10° SSW
YAOGAN 1 4.1 15:40:43 20° NE 15:40:43 20° NE 15:42:40 10° NNE
Cosmos 1939 Rocket 4.3 15:36:46 10° S 15:40:40 40° WSW 15:44:33 10° NNW
ATLAS 3B R/B 3.9 15:37:07 10° NW 15:44:11 45° WSW 15:51:17 10° S
Meteor 2-2 Rocket 4.3 15:40:44 10° S 15:46:40 88° W 15:52:24 10° N
MOS 1-B Rocket 3.9 15:41:54 10° NNE 15:47:28 49° ESE 15:52:52 10° S
Meteor 2-15 Rocket 4.3 15:42:38 10° S 15:48:43 66° E 15:54:42 10° NNE
Cosmos 1633 2.3 15:46:08 10° N 15:49:38 88° E 15:50:29 50° S
Cosmos 1809 Rocket 4.3 15:43:33 10° N 15:49:42 74° E 15:55:55 10° S
Skynet4D Del rocket 4.1 15:44:37 10° WSW 15:49:53 56° NNW 15:53:29 22° NE
Cosmos 1486 Rocket 4.1 15:44:45 10° SSW 15:50:03 79° WNW 15:55:20 10° N
Feng Yun 1-1 Rocket 4.1 15:48:56 12° SSE 15:54:17 72° ENE 15:59:47 10° N
Cosmos 2151 2.8 15:51:02 10° N 15:55:14 80° E 15:56:30 45° SSE
Hubble Space Telescope 2.7 15:53:07 10° NNW 15:55:30 18° NNE 15:55:30 18° NNE
CZ-2C R/B 4.2 15:54:04 10° S 15:58:30 38° WSW 16:02:53 10° NW
SL-16 R/B 2.3 15:55:47 10° N 16:01:11 48° ENE 16:01:15 48° ENE
EPKM 2.8 16:05:01 10° WSW 16:09:01 48° WSW 16:09:01 48° WSW
GPS 2-14 Rocket1 4.1 16:15:29 10° W 16:17:40 32° WSW 16:17:40 32° WSW
GPS 2-15 Rocket1 3.4 16:14:21 10° W 16:19:00 67° NW 16:19:00 67° NW
Orbus 21S 2.9 16:12:19 10° WSW 16:20:34 70° W 16:20:34 70° W
H-2A R/B 2.4 16:19:00 32° S 16:21:11 60° WSW 16:26:02 10° NNW
Meteor 2-16 Rocket 4.3 16:18:25 10° N 16:23:57 69° NE 16:23:57 69° NE
CZ-4 R/B 2.7 16:27:50 38° NW 16:27:50 38° NW 16:30:35 10° NNW
Meteor 2-21 Rocket 4.4 16:21:07 10° N 16:27:18 83° W 16:29:14 47° S
SWIFT 4.0 16:27:32 10° W 16:29:49 31° W 16:29:49 31° W
Meteor 2-3 Rocket 4.0 16:26:43 10° NNW 16:32:12 62° W 16:33:26 49° SSW
CZ-2C R/B 3.5 16:31:19 10° W 16:34:05 21° NW 16:34:05 21° NW
Cosmos 2266 Rocket 4.0 16:29:39 10° N 16:35:39 73° W 16:36:23 65° SW
Atlas Centaur 2 3.8 16:39:37 10° WSW 16:45:02 33° S 16:45:02 33° S
ARGOS 4.3 16:52:48 40° WNW 16:52:48 40° WNW 16:56:37 10° NNW
Maqsat-H 4.2 16:59:03 10° WNW 17:08:43 28° NNW 17:08:43 28° NNW
ATLAS 2A CENTAUR R/B 4.0 16:41:53 10° WSW 17:19:26 74° S 17:19:26 74° S
